Cloud_Cover
0 0 0 5 2 0 0 0 0 1 49 12 4 6 18 5 6 98 5 5 23 70 97 100 100 5 5 0 0 0 0 0 0 0 0 0 12 41 19 59 100 76 77 88
0 0 4 0 0 0 0 0 3 2 30 65 15 5 5 4 5 5 5 0 0 3 85 100 18 4 3 0 0 0 0 0 0 0 0 0 5 56 60 75 100 89 99 89
0 0 0 0 0 0 0 3 2 1 0 54 100 97 5 4 5 5 3 5 3 3 1 90 40 0 4 0 0 5 0 0 0 0 0 0 0 0 0 7 98 100 52 5
0 0 0 0 0 1 38 5 0 0 0 39 7 60 53 5 5 5 5 5 4 5 1 0 0 0 0 0 4 5 0 0 0 0 0 0 0 0 1 10 96 100 18 5
0 0 0 0 0 4 6 4 0 0 0 0 0 0 4 12 5 5 5 5 0 3 0 0 0 0 0 0 0 0 0 0 0 0 0 0 0 0 7 5 5 99 30 5
0 0 0 0 0 0 1 0 0 0 0 0 2 3 28 2 5 10 8 5 1 0 0 0 0 0 0 1 4 1 4 1 0 0 0 0 0 0 29 4 0 99 10 13
0 0 0 0 0 0 0 1 2 0 0 3 0 0 80 47 25 98 27 12 5 1 0 0 0 2 5 5 12 10 4 4 5 0 0 0 0 0 0 1 7 93 96 24
0 0 0 0 0 0 0 2 4 5 0 8 0 3 46 0 98 95 42 55 5 5 0 0 0 5 17 5 26 5 39 5 5 11 40 0 0 0 0 0 38 69 100 100
0 0 0 0 0 0 0 0 0 3 0 0 0 0 0 0 2 24 8 5 5 5 0 0 0 0 15 82 94 76 78 88 73 15 24 3 0 0 0 0 0 6 80 100
0 0 0 0 0 0 0 0 0 0 0 2 0 0 0 0 0 0 3 5 1 0 0 0 0 0 0 26 98 100 58 83 43 10 80 100 98 2 0 0 0 0 14 42
0 0 0 0 0 0 0 0 0 1 2 0 0 0 0 0 0 0 0 0 0 0 0 0 0 0 0 1 78 5 5 5 29 18 42 94 23 32 2 0 0 3 2 56
0 0 0 0 0 0 0 0 0 0 0 0 0 0 0 0 0 0 0 0 0 0 0 0 0 0 0 0 4 61 98 79 89 83 18 15 2 5 37 5 0 0 6 4
0 0 0 0 0 0 0 0 0 0 0 5 4 0 0 0 0 0 0 0 0 0 0 0 0 0 0 0 73 85 64 59 100 100 66 9 4 13 83 0 2 0 0 5
0 1 0 0 0 0 0 0 0 0 0 0 0 0 0 0 0 0 0 0 0 0 0 0 0 0 0 0 0 5 5 71 85 100 98 5 5 61 100 0 0 0 0 0
0 0 2 0 0 0 0 0 0 0 0 0 24 1 0 0 0 0 0 0 0 0 0 0 0 0 0 0 0 4 4 65 34 92 12 58 89 37 31 0 1 4 1 10
0 4 1 0 0 0 0 0 0 0 0 0 0 0 0 0 0 0 0 0 0 0 0 0 0 0 0 0 0 0 4 10 5 4 8 12 15 99 7 0 0 5 5 8
0 1 0 5 2 0 1 0 0 0 0 0 0 0 0 0 0 0 0 0 0 0 0 0 0 0 0 0 0 0 2 13 23 100 92 5 99 42 2 59 76 13 73 7
0 0 3 100 3 3 14 5 0 0 0 0 0 3 0 0 0 0 0 3 0 0 0 0 0 0 0 0 0 0 0 5 51 4 35 60 95 1 9 0 0 12 9 6
0 0 5 56 4 57 75 3 0 0 0 0 0 5 0 4 0 0 0 2 0 0 1 0 0 0 0 0 0 0 5 0 84 100 100 85 30 3 3 1 6 14 12 32
0 0 13 20 91 100 100 34 0 0 0 0 0 2 0 96 33 33 0 4 84 2 0 0 0 0 0 1 5 5 5 4 0 73 9 5 0 0 0 1 6 11 34 20
0 0 0 5 10 95 80 1 0 0 2 0 0 0 0 5 71 2 0 27 48 5 0 0 3 5 5 13 7 5 1 2 1 0 3 20 14 0 0 0 3 3 2 8
0 0 0 4 68 70 22 0 0 4 0 0 0 0 0 0 89 89 43 63 0 0 0 0 4 38 96 77 64 93 100 49 34 8 33 61 2 0 2 0 1 1 9 2
0 0 0 3 19 0 3 0 0 0 0 0 0 0 0 2 61 82 80 94 85 0 0 0 2 4 95 100 100 100 100 100 100 78 100 73 0 0 0 0 1 4 2 0
0 0 0 0 0 2 0 0 0 0 0 0 0 0 0 0 0 4 6 4 1 3 3 3 2 98 24 5 14 96 17 97 100 100 99 46 6 1 4 5 0 0 0 0
11 0 0 0 0 0 0 0 0 0 0 0 0 0 0 0 1 0 0 0 0 0 0 2 3 5 4 5 7 30 50 100 100 92 98 100 96 58 48 29 9 0 4 20
0 0 0 0 0 0 0 0 0 0 0 5 0 0 0 0 0 0 0 0 0 0 0 4 5 5 7 22 5 2 5 54 100 100 100 100 55 36 83 13 5 69 42 11